Weather History for KCLE - December, 2012

Change the Weather History Date:

Tuesday, December 25, 2012

  Actual Average Record
Temperature  
Mean Temperature 34 °F 30 °F  
Max Temperature 35 °F 36 °F 66 °F (1982)
Min Temperature 32 °F 24 °F -10 °F (1983)
Degree Days  
Heating Degree Days 31 35  
Month to date heating degree days 613 795  
Since 1 July heating degree days 1858 1890  
Cooling Degree Days 0 0  
Month to date cooling degree days 0 0  
Year to date cooling degree days 1096 817  
Moisture  
Dew Point 27 °F    
Average Humidity 81    
Maximum Humidity 92    
Minimum Humidity 69    
Precipitation  
Precipitation T in 0.10 in 1.83 in (1979)
Month to date precipitation 2.98 2.51  
Year to date precipitation 43.67 38.55  
Snow  
Snow T in 0.50 in - ()
Month to date snowfall 4.3 10.8  
Since 1 July snowfall 4.6 15.3  
Snow Depth 1.00 in    
Sea Level Pressure  
Sea Level Pressure 30.15 in    
Wind  
Wind Speed 10 mph (NNE)    
Max Wind Speed 16 mph    
Max Gust Speed 20 mph    
Visibility 9 miles    
Events Snow    
T = Trace of Precipitation, MM = Missing Value Source: NWS Daily Summary

Daily Weather History Graph

Daily Weather History Graph

Search for Another Location

Airport or City:

Trip Planner

Search our weather history database for the weather conditions in past years. The results will help you decide how hot, cold, wet, or windy it might be!

Date:

Astronomy

Dec. 25, 2012 Rise Set
Actual Time 7:52 AM EST 5:03 PM EST
Civil Twilight 7:20 AM EST 5:34 PM EST
Nautical Twilight 6:45 AM EST 6:09 PM EST
Astronomical Twilight 6:12 AM EST 6:43 PM EST
Moon 3:11 PM EST (12/25) 5:22 AM EST (12/25)
Length of Visible Light 10h 14m
Length of Day
9h 11m
Waxing Gibbous, 93% of the Moon is Illuminated
Dec 25
Waxing Gibbous
Dec 28
Full
Jan 4
Last Quarter
Jan 11
New
Jan 18
First Quarter

Hourly Weather History & Observations

Time (EST) Temp. Windchill Dew Point Humidity Pressure Visibility Wind Dir Wind Speed Gust Speed Precip Events Conditions
12:08 AM 32.0 °F 27.5 °F 30.2 °F 93% 29.93 in 1.8 mi West 4.6 mph - 0.00 in   Light Drizzle
12:16 AM 32.0 °F 26.4 °F 30.2 °F 93% 29.93 in 2.0 mi West 5.8 mph - 0.00 in   Light Drizzle
12:20 AM 32.0 °F 24.8 °F 30.2 °F 93% 29.94 in 2.5 mi WNW 8.1 mph - 0.00 in   Light Drizzle
12:28 AM 33.8 °F 27.0 °F 30.2 °F 87% 29.94 in 3.0 mi North 8.1 mph - 0.00 in   Light Drizzle
12:38 AM 33.8 °F 25.8 °F 30.2 °F 87% 29.94 in 7.0 mi North 10.4 mph - 0.00 in   Overcast
12:51 AM 33.1 °F 24.4 °F 30.0 °F 89% 29.97 in 10.0 mi North 11.5 mph - 0.00 in   Overcast
1:51 AM 33.1 °F 26.1 °F 30.0 °F 89% 30.01 in 7.0 mi North 8.1 mph - N/A   Overcast
2:14 AM 33.8 °F 28.6 °F 30.2 °F 87% 30.00 in 10.0 mi NNW 5.8 mph - N/A   Overcast
2:44 AM 33.8 °F 26.4 °F 28.4 °F 81% 30.01 in 10.0 mi North 9.2 mph - N/A   Overcast
2:51 AM 33.1 °F 26.1 °F 28.9 °F 85% 30.04 in 10.0 mi North 8.1 mph - N/A   Overcast
3:51 AM 33.1 °F 24.9 °F 27.0 °F 78% 30.06 in 10.0 mi North 10.4 mph - N/A   Overcast
3:55 AM 33.8 °F 25.3 °F 26.6 °F 75% 30.04 in 10.0 mi North 11.5 mph - N/A   Overcast
4:02 AM 33.8 °F 25.3 °F 26.6 °F 75% 30.04 in 10.0 mi North 11.5 mph - N/A   Overcast
4:51 AM 32.0 °F 24.2 °F 26.1 °F 79% 30.10 in 10.0 mi North 9.2 mph - N/A   Overcast
5:51 AM 32.0 °F 23.6 °F 26.1 °F 79% 30.13 in 10.0 mi North 10.4 mph - N/A   Overcast
6:51 AM 32.0 °F 25.6 °F 26.1 °F 79% 30.17 in 10.0 mi North 6.9 mph - N/A   Overcast
7:51 AM 32.0 °F 24.2 °F 24.1 °F 73% 30.18 in 10.0 mi North 9.2 mph - N/A   Overcast
8:51 AM 32.0 °F 24.2 °F 25.0 °F 75% 30.20 in 10.0 mi North 9.2 mph - N/A   Overcast
9:51 AM 33.1 °F 25.5 °F 26.1 °F 75% 30.22 in 10.0 mi North 9.2 mph - N/A   Overcast
10:51 AM 34.0 °F 26.0 °F 27.0 °F 75% 30.21 in 10.0 mi NNE 10.4 mph - N/A   Mostly Cloudy
11:51 AM 34.0 °F 26.0 °F 26.1 °F 73% 30.25 in 10.0 mi NNE 10.4 mph - N/A   Overcast
12:51 PM 35.1 °F 27.9 °F 27.0 °F 72% 30.23 in 10.0 mi NE 9.2 mph - N/A   Overcast
1:51 PM 35.1 °F 28.6 °F 27.0 °F 72% 30.22 in 10.0 mi NE 8.1 mph - N/A   Overcast
2:23 PM 35.6 °F 28.6 °F 28.4 °F 75% 30.20 in 9.0 mi ENE 9.2 mph - 0.00 in Snow Light Snow
2:51 PM 35.1 °F 29.3 °F 28.0 °F 76% 30.23 in 10.0 mi ENE 6.9 mph - 0.00 in   Overcast
3:51 PM 35.1 °F 27.4 °F 28.0 °F 76% 30.26 in 9.0 mi NE 10.4 mph - 0.00 in   Overcast
4:34 PM 35.6 °F 27.5 °F 26.6 °F 70% 30.25 in 10.0 mi ENE 11.5 mph - N/A   Overcast
4:51 PM 35.1 °F 27.9 °F 27.0 °F 72% 30.27 in 10.0 mi NE 9.2 mph - N/A   Overcast
5:51 PM 35.1 °F 29.3 °F 27.0 °F 72% 30.26 in 10.0 mi ENE 6.9 mph - N/A   Overcast
6:51 PM 35.1 °F 27.4 °F 27.0 °F 72% 30.28 in 10.0 mi NE 10.4 mph - N/A   Overcast
7:51 PM 34.0 °F 25.0 °F 27.0 °F 75% 30.28 in 10.0 mi NE 12.7 mph - N/A   Overcast
8:51 PM 34.0 °F 25.5 °F 25.0 °F 70% 30.27 in 10.0 mi ENE 11.5 mph - N/A   Overcast
9:32 PM 33.8 °F 25.8 °F 26.6 °F 75% 30.24 in 10.0 mi ENE 10.4 mph - N/A   Overcast
9:51 PM 34.0 °F 26.0 °F 25.0 °F 70% 30.26 in 10.0 mi ENE 10.4 mph - N/A   Overcast
10:51 PM 34.0 °F 25.0 °F 25.0 °F 70% 30.27 in 10.0 mi East 12.7 mph - N/A   Overcast
11:34 PM 33.8 °F 24.3 °F 24.8 °F 70% 30.23 in 10.0 mi ENE 13.8 mph - N/A   Overcast
11:51 PM 33.1 °F 23.9 °F 23.0 °F 66% 30.26 in 10.0 mi East 12.7 mph - N/A   Overcast